Toms River, NJ

11:14 AM EST on December 06, 2019 (GMT -0500)
Miller

Weather History for KMJX - August, 2019

Change the Weather History Date:

Tuesday, August 6, 2019

  Actual Average Record
Temperature  
Mean Temperature 76 °F -  
Max Temperature 84 °F 85 °F 96 °F (1993)
Min Temperature 69 °F 62 °F 47 °F (1972)
Cooling Degree Days 12    
Growing Degree Days 26 (Base 50)    
Moisture  
Dew Point 75 °F    
Average Humidity 83    
Maximum Humidity 94    
Minimum Humidity 67    
Precipitation  
Precipitation 0.00 in - - ()
Sea Level Pressure  
Sea Level Pressure 29.90 in    
Wind  
Wind Speed 2 mph (SE)    
Max Wind Speed 10 mph    
Max Gust Speed 18 mph    
Visibility 7 miles    
Events Fog , Rain , Thunderstorm    
Averages and records for this station are not official NWS values.
T = Trace of Precipitation, MM = Missing Value Source: NWS Daily Summary

Daily Weather History Graph

Daily Weather History Graph

Search for Another Location

Airport or City:

Astronomy

Aug. 06, 2019 Rise Set
Actual Time 6:00 AM EDT 8:05 PM EDT
Civil Twilight 5:30 AM EDT 8:35 PM EDT
Nautical Twilight 4:53 AM EDT 9:11 PM EDT
Astronomical Twilight 4:14 AM EDT 9:50 PM EDT
Moon 12:22 PM EDT 11:49 PM EDT
Length of Visible Light 15h 04m
Length of Day
14h 05m
Waxing Crescent, 38% of the Moon is Illuminated
Aug 6
Waxing Crescent
Aug 7
First Quarter
Aug 15
Full
Aug 23
Last Quarter
Aug 30
New

Hourly Weather History & Observations

Time (EDT) Temp. Heat Index Dew Point Humidity Pressure Visibility Wind Dir Wind Speed Gust Speed Precip Events Conditions
12:05 AM 71.6 °F - - N/A% 29.95 in 10.0 mi Calm Calm - N/A   Mostly Cloudy
12:56 AM 71.1 °F - - N/A% 29.95 in 10.0 mi Calm Calm - N/A   Mostly Cloudy
1:10 AM 71.6 °F - - N/A% 29.93 in 10.0 mi Calm Calm - N/A   Mostly Cloudy
1:56 AM - - - N/A% 29.92 in 8.0 mi Calm Calm - N/A   Scattered Clouds
2:19 AM - - - N/A% 29.91 in 10.0 mi Calm Calm - N/A   Mostly Cloudy
2:53 AM - - - N/A% 29.90 in 10.0 mi Calm Calm - N/A   Scattered Clouds
2:56 AM - - - N/A% 29.90 in 10.0 mi Calm Calm - N/A   Scattered Clouds
3:56 AM 69.1 °F - - N/A% 29.92 in 10.0 mi Calm Calm - N/A   Mostly Cloudy
4:56 AM - - - N/A% 29.90 in 5.0 mi Calm Calm - N/A   Haze
5:11 AM - - - N/A% 29.90 in 1.8 mi Calm Calm - N/A   Overcast
5:25 AM - - - N/A% 29.91 in 2.0 mi Calm Calm - N/A   Overcast
5:33 AM - - - N/A% 29.90 in 1.0 mi North 3.5 mph - N/A   Overcast
5:56 AM - - - N/A% 29.90 in 0.8 mi NNE 3.5 mph - N/A   Overcast
6:03 AM - - - N/A% 29.90 in 0.2 mi Calm Calm - N/A Fog Fog
6:56 AM - - - N/A% 29.91 in 0.2 mi NNW 3.5 mph - N/A Fog Fog
7:56 AM - - - N/A% 29.91 in 0.5 mi North 3.5 mph - N/A Fog Fog
8:06 AM - - - N/A% 29.91 in 0.2 mi NNE 3.5 mph - N/A Fog Fog
8:27 AM - - - N/A% 29.91 in 0.5 mi Calm Calm - N/A Fog Fog
8:34 AM - - - N/A% 29.91 in 0.8 mi Calm Calm - N/A   Overcast
8:42 AM - - - N/A% 29.91 in 1.2 mi Calm Calm - N/A   Overcast
8:52 AM - - - N/A% 29.91 in 2.5 mi Calm Calm - N/A   Overcast
8:56 AM - - - N/A% 29.91 in 3.0 mi Calm Calm - N/A   Overcast
9:17 AM - - - N/A% 29.91 in 5.0 mi Calm Calm - N/A   Haze
9:35 AM - - - N/A% 29.91 in 2.5 mi Calm Calm - N/A   Mostly Cloudy
9:43 AM - - - N/A% 29.91 in 8.0 mi Calm Calm - N/A   Mostly Cloudy
9:56 AM 75.0 °F - - N/A% 29.91 in 9.0 mi Calm Calm - N/A   Mostly Cloudy
10:08 AM 75.2 °F - - N/A% 29.91 in 10.0 mi Calm Calm - N/A   Mostly Cloudy
10:39 AM 75.2 °F - - N/A% 29.91 in 10.0 mi SE 4.6 mph - N/A   Overcast
10:48 AM 78.8 °F - - N/A% 29.91 in 10.0 mi SE 6.9 mph - N/A   Overcast
10:56 AM 77.0 °F - - N/A% 29.91 in 10.0 mi ESE 5.8 mph - N/A   Overcast
11:05 AM 77.0 °F - - N/A% 29.90 in 10.0 mi SE 6.9 mph - N/A   Mostly Cloudy
11:56 AM 81.0 °F 87.3 °F 75.9 °F 85% 29.91 in 10.0 mi Variable 4.6 mph - N/A   Unknown
12:07 PM 82.4 °F 90.9 °F 77.0 °F 84% 29.90 in 10.0 mi Variable 4.6 mph - N/A   Mostly Cloudy
12:30 PM 82.4 °F 87.2 °F 71.6 °F 70% 29.90 in 10.0 mi ESE 5.8 mph - N/A   Mostly Cloudy
12:56 PM 84.0 °F 89.6 °F 72.0 °F 67% 29.89 in 10.0 mi Variable 5.8 mph - N/A   Scattered Clouds
1:56 PM 75.0 °F - - N/A% 29.88 in 5.0 mi Calm Calm - N/A Rain , Thunderstorm Thunderstorms and Rain
2:56 PM 73.9 °F - - N/A% 29.87 in 9.0 mi SE 3.5 mph - N/A Thunderstorm Thunderstorm
3:17 PM 77.0 °F - - N/A% 29.87 in 10.0 mi SSE 4.6 mph - N/A   Clear
3:56 PM 79.0 °F - - N/A% 29.87 in 10.0 mi South 10.4 mph 18.4 mph N/A   Partly Cloudy
4:56 PM 81.0 °F 87.9 °F 77.0 °F 88% 29.84 in 10.0 mi SSW 6.9 mph - N/A   Clear
5:56 PM 80.1 °F 85.8 °F 77.0 °F 90% 29.85 in 10.0 mi South 4.6 mph - N/A   Clear
6:56 PM 79.0 °F - 77.0 °F 94% 29.85 in 10.0 mi South 4.6 mph - N/A   Clear
7:56 PM 75.0 °F - - N/A% 29.85 in 10.0 mi South 3.5 mph - N/A   Clear
8:56 PM 72.0 °F - - N/A% 29.85 in 10.0 mi South 3.5 mph - N/A   Clear
9:56 PM - - - N/A% 29.87 in 10.0 mi South 4.6 mph - N/A   Clear
10:56 PM - - - N/A% 29.87 in 10.0 mi South 4.6 mph - N/A   Clear
11:56 PM - - - N/A% 29.86 in 9.0 mi Calm Calm - N/A   Clear